Regional Weather Roundup
Issued by NWS

Home | Current Version | Previous Version | Graphics & Text | Print | Product List | Glossary On
Versions: 1 2 3 4 5 6 7 8 9 10 11 12 13 14 15 16 17 18 19 20 21 22 23 24 25 26 27 28 29 30 31 32 33 34 35 36 37 38 39 40 41 42 43 44 45 46 47 48 49 50
000
ASUS43 KOAX 301510
RWRNE

WEATHER ROUNDUP FOR NEBRASKA
NATIONAL WEATHER SERVICE OMAHA NE
1000 AM CDT SAT MAY 30 2015

NOTES: SATELLITE DATA IS BEING USED TO AUGMENT CLOUD COVER ABOVE
       12000 FEET.
       "FAIR" INDICATES FEW OR NO CLOUDS BELOW 12,000 FEET WITH NO
       SIGNIFICANT WEATHER AND/OR OBSTRUCTIONS TO VISIBILITY.

  * THESE STATIONS DO NOT REPORT WEATHER SUCH AS RAIN...SNOW OR FOG.

NEZ001>004-019>022-054>056-301600-
NEBRASKA PANHANDLE

CITY           SKY/WX    TMP DP  RH WIND       PRES   REMARKS
SCOTTSBLUFF    MOSUNNY   53  46  77 SE13      30.27F
ALLIANCE       MOSUNNY   48  42  80 E8        30.29F
CHADRON        SUNNY     51  43  74 SE12      30.29F
KIMBALL          N/A    N/A N/A N/A MISG        N/A
SIDNEY         CLOUDY    50  43  77 VRB6      30.32R
$$

NEZ057>060-069>072-079>082-301600-
SOUTHWEST NEBRASKA

CITY           SKY/WX    TMP DP  RH WIND       PRES   REMARKS
NORTH PLATTE   PTSUNNY   50  38  63 N10       30.33S
IMPERIAL       SUNNY     51  39  63 N10       30.33F
LEXINGTON      SUNNY     51  40  64 N17       30.29S
MCCOOK         PTSUNNY   53  39  59 N16       30.31S
OGALLALA       SUNNY     51  39  64 NE7       30.33F
$$

NEZ005>010-023>029-035>040-094-301600-
NORTH CENTRAL NEBRASKA

CITY           SKY/WX    TMP DP  RH WIND       PRES   REMARKS
VALENTINE      MOSUNNY   48  37  65 NE10      30.34S
AINSWORTH      SUNNY     49  37  64 N7        30.33S
BROKEN BOW     SUNNY     51  36  56 N20       30.29F
O`NEILL        MOSUNNY   49  42  76 N12       30.31F
ORD            PTSUNNY   49  40  71 N15       30.28S
THEDFORD       PTSUNNY   48  38  69 N7        30.34S
$$

NEZ041-046>049-061>064-073>077-083>087-301600-
SOUTH CENTRAL NEBRASKA

CITY           SKY/WX    TMP DP  RH WIND       PRES   REMARKS
GRAND ISLAND   MOSUNNY   54  42  64 N17G24    30.26S
AURORA         CLOUDY    53  43  70 N16       30.25S
HASTINGS       CLOUDY    51  43  74 N16       30.25R
HEBRON         CLOUDY    52  44  74 N12G20    30.22S
HOLDREGE       SUNNY     51  38  61 N16G22    30.27S
KEARNEY *      PTSUNNY   52  39  62 N15       30.27S
YORK           CLOUDY    52  45  76 N16G24    30.24R
$$

NEZ011>018-030>034-042>045-301600-
NORTHEAST NEBRASKA

CITY           SKY/WX    TMP DP  RH WIND       PRES   REMARKS
NORFOLK        PTSUNNY   52  43  71 N15       30.26R
ALBION         MOSUNNY   52  42  67 N14       30.27S
BLAIR          CLOUDY    52  45  77 N14G23    30.19R
COLUMBUS *     PTSUNNY   54  41  62 N14G23    30.25S
FREMONT        CLOUDY    54  44  70 N9        30.21S
TEKAMAH        CLOUDY    55  45  68 N22       30.21R
WAYNE          CLOUDY    51  44  77 N15       30.26R
$$

NEZ050>053-065>068-078-088>093-301600-
SOUTHEAST NEBRASKA

CITY           SKY/WX    TMP DP  RH WIND       PRES   REMARKS
LINCOLN        CLOUDY    53  45  74 N17       30.22R
OMAHA EPPLEY   CLOUDY    54  46  74 N15G25    30.18R
BEATRICE       CLOUDY    52  46  79 N14G20    30.19S
FALLS CITY     CLOUDY    55  50  83 N13G21    30.14R
NEBRASKA CITY  CLOUDY    54  48  81 N15       30.16S
PLATTSMOUTH    CLOUDY    54  47  78 N10G18    30.17S
$$

NEZ044-045-051>053-067-301600-
OMAHA AREA

CITY           SKY/WX    TMP DP  RH WIND       PRES   REMARKS
OMAHA EPPLEY   CLOUDY    54  46  74 N15G25    30.18R
BLAIR          CLOUDY    52  45  77 N14G23    30.19R
FREMONT        CLOUDY    54  44  70 N9        30.21S
MILLARD        CLOUDY    54  46  75 N12G20    30.19R
OFFUTT AFB     CLOUDY    55  47  75 N12G23    30.17R
PLATTSMOUTH    CLOUDY    54  47  78 N10G18    30.17S
WAHOO          CLOUDY    54  45  72 N21       30.20S
$$



USA.gov is the U.S. government's official web portal to all federal, state and local government web resources and services.